Location: Waco, TX
(31.5480°N, 97.1670°W)
Time: 06:37:41
(UTC-05:00)

ISS - Pass Details

Date: 27 September 2022
Orbit: 414 x 417 km, 51.6° (Epoch: 01 October)

Event Time Altitude Azimuth Distance (km) Brightness Sun altitude
Rises 14:47:11 0° 203° (SSW) 2,334 0.6 50.6°
Reaches altitude 10° 14:49:25 10° 192° (SSW) 1,476 -0.2 50.4°
Maximum altitude 14:52:21 29° 129° (SE) 784 -2.0 50.0°
Drops below altitude 10° 14:55:18 10° 67° (ENE) 1,486 -1.2 49.6°
Sets 14:57:33 0° 56° (NE) 2,353 -0.3 49.3°
